sat.trackr.live / text

‹ back to catalog

STARLINK-36312

NORAD 67609 · 2026-018W

PAYLOAD ACTIVE UNKNOWN

§ Identity

Operator
Country
US
Launch date
2026-01-29
Launch site
AFWTR
Launch vehicle
Mass (kg)
RCS (m²)

Purposes: comms

External: N2YO · Heavens-Above · Gunter

§ Orbital elements

Epoch: 2026-09-18T03:49:19.789248Z

Period
93.91 min
Inclination
97.2845°
Eccentricity
0.0001269
Mean motion
15.33446678 rev/d
Perigee alt
464.7 km
Apogee alt
466.4 km
Semi-major
6,843.7 km
B*
7.5940e-4
RAAN
324.6808°
Arg perigee
111.8521°
Mean anomaly
248.2857°
Rev number
3,683

§ Raw data

STARLINK-363121 67609U 26018W   26261.15925682  .00024522  00000+0  75940-3 0  99922 67609  97.2845 324.6808 0001269 111.8521 248.2857 15.33446678 36836

JSON: /api/v1/satellites/67609 · /tle

For live sub-satellite position, see the globe view (requires WebGL).

§ Visibility from observer

Set your observer location to see the next 7 days of passes ≥ 10°. The values pass through the URL so the page stays shareable.

No JS? Fill the form by hand. The geolocation button needs JavaScript.